This is the latest recevied weather packets stored in our database for station/object KGRR-WX. If no packets are shown the sender has not sent any weather packets the latest 10 day(s).
| Time | Temp. | Humidity | Pressure | Rain* | Wind** | Luminosity | Snow |
|---|---|---|---|---|---|---|---|
| 1788224410 | 22.78° C | 87% | 984.8 hPa | 0 mm | - | - | - |
| 1788223509 | 22.78° C | 79% | 985 hPa | 0 mm | - | - | - |
| 1788222608 | 23.89° C | 81% | 984.3 hPa | 0 mm | - | - | - |
| 1788221709 | 23.89° C | 81% | 984.3 hPa | 0 mm | - | - | - |
| 1788220805 | 24.44° C | 81% | 984.3 hPa | 0 mm | - | - | - |
| 1788219909 | 25° C | 72% | 984.6 hPa | 0 mm | - | - | - |
| 1788219008 | 25.56° C | 69% | 984.3 hPa | 0 mm | - | - | - |
| 1788218108 | 26.11° C | 69% | 984.3 hPa | 0 mm | - | - | - |
| 1788217209 | 26.67° C | 69% | 984.3 hPa | 0 mm | - | - | - |
| 1788216308 | 27.22° C | 67% | 984.8 hPa | 0 mm | - | - | - |
| 1788215409 | 27.78° C | 60% | 985.1 hPa | 0 mm | - | - | - |
| 1788214504 | 28.33° C | 60% | 985.1 hPa | 0 mm | - | - | - |
| 1788213608 | 28.33° C | 60% | 985.1 hPa | 0 mm | - | - | - |
| 1788212707 | 28.33° C | 67% | 985.6 hPa | 0 mm | - | - | - |
| 1788211805 | 28.33° C | 59% | 985.2 hPa | 0 mm | - | - | - |
| 1788210907 | 29.44° C | 59% | 985.4 hPa | 0 mm | - | - | - |
| 1788210008 | 29.44° C | 59% | 985.4 hPa | 0 mm | - | - | - |
| 1788209105 | 28.89° C | 67% | 986.3 hPa | 0 mm | - | - | - |
| 1788208205 | 28.33° C | 72% | 985.9 hPa | 0 mm | - | - | - |
| 1788207307 | 27.22° C | 72% | 985.9 hPa | 0 mm | - | - | - |
| 1788206407 | 26.67° C | 79% | 986.3 hPa | 0 mm | - | - | - |
| 1788205507 | 26.11° C | 63% | 986.6 hPa | 0.25 mm | - | - | - |
| 1788204606 | 27.78° C | 63% | 986.6 hPa | 0.25 mm | - | - | - |
| 1788203707 | 25.56° C | 63% | 986.8 hPa | 0 mm | - | - | - |
| 1788202808 | 28.33° C | 60% | 986.3 hPa | 0 mm | - | - | - |
* Rain latest hour (hover to see other rain measurements)
** Current wind speed in m/s (hover to see current wind gust speed)